Temp
-8 -7 -7 -7 -7 -7 -8 -8 -8 -8 -9 -9 -9 -9 -9 -9 -9 -8 -8 -8 -8 -8 -8 -8 -8 -8 -8 -8 -7 -7 -8 -8 -7 -7 -7 -7 -7 -7 -8 -8 -8 -8 -8
-7 -8 -7 -7 -8 -8 -8 -9 -9 -9 -9 -9 -9 -9 -9 -9 -9 -9 -8 -8 -8 -8 -8 -8 -8 -8 -8 -8 -7 -8 -8 -8 -8 -8 -7 -7 -8 -8 -8 -8 -8 -8 -8
-7 -7 -7 -7 -8 -8 -8 -9 -9 -9 -9 -9 -9 -9 -9 -9 -9 -9 -9 -9 -9 -8 -8 -8 -8 -8 -8 -8 -8 -8 -8 -8 -8 -8 -7 -8 -8 -8 -8 -8 -8 -8 -8
-7 -7 -7 -7 -8 -8 -8 -8 -8 -9 -9 -9 -9 -9 -9 -9 -9 -9 -9 -9 -9 -9 -9 -9 -9 -8 -8 -8 -8 -8 -8 -8 -8 -8 -8 -8 -8 -8 -8 -8 -8 -8 -7
-7 -7 -7 -7 -8 -8 -8 -8 -8 -9 -9 -9 -9 -9 -9 -9 -9 -9 -9 -9 -9 -9 -9 -9 -9 -9 -9 -9 -8 -8 -8 -8 -8 -8 -8 -8 -8 -8 -8 -7 -7 -7 -7
-7 -7 -7 -7 -8 -8 -8 -8 -9 -9 -9 -9 -9 -9 -9 -9 -10 -9 -9 -9 -9 -9 -9 -9 -9 -9 -9 -9 -8 -8 -8 -8 -8 -7 -7 -8 -8 -8 -8 -7 -7 -7 -7
-7 -7 -7 -7 -8 -8 -8 -8 -9 -9 -9 -9 -9 -9 -9 -9 -9 -10 -9 -9 -9 -10 -10 -9 -9 -9 -9 -9 -9 -9 -8 -8 -8 -8 -7 -7 -7 -7 -7 -7 -7 -7 -7
-7 -7 -7 -7 -8 -8 -8 -9 -9 -9 -9 -9 -9 -9 -9 -9 -9 -9 -10 -9 -10 -10 -10 -10 -9 -9 -9 -9 -9 -9 -8 -8 -8 -8 -7 -7 -7 -7 -7 -7 -7 -7 -7
-7 -7 -7 -8 -8 -8 -8 -9 -8 -9 -9 -9 -9 -9 -9 -8 -9 -9 -10 -9 -10 -10 -10 -10 -10 -9 -9 -9 -9 -8 -8 -8 -8 -8 -8 -7 -7 -7 -7 -7 -8 -8 -7
-7 -7 -7 -7 -8 -8 -8 -8 -8 -9 -9 -9 -9 -9 -8 -8 -9 -9 -9 -10 -10 -10 -10 -9 -9 -9 -9 -9 -9 -8 -8 -8 -8 -8 -8 -7 -7 -7 -7 -8 -8 -8 -7
-7 -7 -7 -8 -8 -8 -8 -8 -8 -8 -8 -9 -9 -9 -8 -9 -8 -9 -9 -9 -10 -10 -10 -9 -9 -9 -9 -9 -9 -8 -8 -8 -8 -8 -8 -8 -8 -7 -8 -8 -8 -8 -8
-7 -7 -8 -8 -8 -8 -8 -8 -8 -8 -9 -9 -9 -9 -9 -9 -9 -9 -9 -9 -9 -9 -9 -9 -9 -9 -9 -9 -8 -8 -8 -8 -8 -8 -8 -8 -8 -8 -8 -8 -8 -8 -8
-7 -7 -8 -8 -8 -8 -8 -8 -8 -9 -9 -9 -9 -9 -9 -9 -9 -9 -9 -9 -9 -9 -9 -9 -9 -9 -9 -8 -8 -9 -9 -8 -8 -8 -8 -8 -8 -8 -9 -8 -8 -8 -8
-7 -7 -7 -8 -8 -8 -8 -8 -8 -9 -9 -9 -9 -9 -9 -9 -9 -9 -9 -9 -9 -9 -9 -8 -8 -8 -9 -9 -9 -9 -9 -9 -9 -8 -8 -8 -9 -9 -8 -8 -8 -8 -8
-7 -7 -7 -7 -8 -8 -8 -7 -8 -8 -9 -9 -9 -9 -9 -9 -9 -9 -9 -9 -8 -8 -8 -8 -8 -8 -8 -8 -8 -9 -9 -9 -9 -9 -9 -9 -9 -9 -9 -8 -8 -8 -8
-7 -7 -7 -7 -8 -7 -7 -7 -7 -8 -9 -8 -8 -8 -9 -9 -8 -8 -8 -8 -8 -8 -8 -8 -8 -8 -8 -8 -8 -8 -9 -9 -9 -9 -9 -9 -9 -9 -9 -9 -8 -8 -8
-7 -7 -7 -7 -7 -7 -7 -7 -7 -8 -8 -8 -8 -8 -8 -8 -8 -8 -8 -8 -8 -7 -7 -7 -7 -8 -8 -8 -8 -8 -9 -9 -9 -9 -9 -9 -9 -9 -9 -9 -8 -8 -8
-6 -6 -7 -7 -7 -7 -7 -7 -7 -8 -8 -8 -8 -8 -8 -8 -8 -8 -8 -8 -8 -8 -7 -7 -7 -8 -8 -8 -8 -9 -9 -9 -9 -10 -10 -10 -9 -9 -9 -9 -9 -9 -8
-6 -6 -6 -7 -7 -7 -7 -7 -7 -7 -7 -8 -8 -8 -8 -8 -7 -7 -7 -8 -8 -8 -7 -7 -7 -8 -8 -8 -9 -9 -9 -9 -10 -10 -10 -10 -9 -9 -9 -9 -9 -9 -8
-6 -6 -6 -6 -6 -7 -7 -7 -7 -7 -7 -7 -7 -8 -8 -8 -7 -7 -7 -7 -7 -7 -7 -7 -7 -8 -8 -8 -9 -9 -10 -10 -10 -10 -10 -10 -10 -10 -9 -9 -9 -9 -9
-6 -6 -6 -6 -6 -7 -7 -7 -7 -7 -7 -7 -7 -7 -8 -7 -7 -7 -7 -7 -7 -7 -7 -7 -7 -8 -8 -8 -9 -9 -10 -10 -10 -10 -10 -10 -10 -10 -9 -9 -9 -9 -9
-6 -6 -6 -6 -7 -7 -7 -7 -6 -7 -7 -7 -7 -7 -7 -7 -7 -7 -7 -7 -7 -7 -7 -7 -7 -7 -8 -8 -8 -9 -9 -9 -10 -10 -10 -10 -9 -9 -9 -9 -9 -9 -9
-6 -6 -6 -6 -7 -7 -7 -7 -6 -6 -7 -7 -7 -7 -7 -7 -7 -7 -7 -7 -7 -7 -7 -7 -7 -8 -8 -8 -8 -8 -9 -9 -9 -10 -10 -10 -9 -9 -9 -9 -9 -9 -9
-6 -6 -6 -6 -6 -7 -6 -6 -7 -6 -6 -6 -6 -7 -7 -6 -6 -7 -7 -7 -7 -7 -7 -7 -7 -8 -8 -8 -8 -9 -9 -9 -9 -9 -10 -9 -9 -10 -9 -9 -9 -9 -8
-6 -6 -6 -6 -7 -6 -7 -6 -6 -7 -7 -6 -7 -6 -6 -6 -6 -6 -7 -7 -7 -7 -7 -7 -7 -8 -8 -8 -8 -9 -9 -9 -9 -9 -9 -9 -9 -9 -9 -9 -9 -8 -8
-6 -6 -6 -6 -6 -6 -6 -7 -6 -6 -6 -6 -6 -6 -6 -7 -7 -7 -6 -6 -7 -7 -7 -7 -8 -8 -8 -8 -8 -8 -9 -9 -9 -9 -9 -9 -9 -9 -9 -9 -8 -8 -7
Height
5898 5899 5898 5898 5897 5896 5896 5896 5896 5896 5897 5898 5899 5900 5900 5900 5900 5901 5900 5901 5902 5903 5903 5904 5904 5903 5905 5905 5906 5905 5906 5907 5907 5909 5910 5911 5913 5913 5914 5915 5916 5916 5915
5900 5901 5900 5899 5899 5898 5897 5898 5898 5898 5898 5899 5900 5900 5901 5901 5901 5902 5902 5903 5903 5904 5905 5906 5906 5906 5907 5907 5907 5908 5909 5910 5911 5911 5911 5913 5915 5916 5916 5918 5919 5917 5915
5903 5903 5903 5902 5901 5900 5900 5899 5899 5899 5900 5900 5901 5901 5902 5902 5902 5902 5903 5904 5905 5905 5906 5907 5908 5909 5909 5910 5910 5912 5912 5912 5913 5913 5915 5915 5917 5918 5920 5921 5920 5918 5918
5905 5905 5905 5903 5903 5901 5902 5901 5900 5901 5901 5902 5901 5902 5903 5903 5904 5903 5904 5905 5906 5907 5907 5908 5909 5910 5911 5912 5913 5913 5913 5914 5915 5916 5918 5919 5920 5922 5922 5922 5922 5921 5921
5906 5906 5906 5905 5904 5903 5903 5903 5902 5903 5903 5902 5902 5902 5903 5903 5902 5901 5904 5905 5907 5908 5909 5910 5911 5912 5913 5914 5915 5916 5916 5918 5918 5919 5920 5921 5922 5923 5924 5924 5923 5923 5923
5907 5907 5907 5907 5906 5904 5904 5903 5903 5903 5903 5902 5902 5901 5902 5901 5901 5903 5904 5906 5908 5908 5910 5912 5913 5914 5915 5916 5917 5919 5920 5920 5921 5922 5922 5923 5925 5926 5926 5926 5925 5925 5926
5909 5909 5909 5908 5908 5906 5906 5905 5905 5905 5904 5903 5902 5901 5900 5900 5902 5903 5905 5906 5908 5910 5912 5914 5916 5917 5918 5919 5920 5922 5922 5922 5923 5924 5925 5926 5927 5927 5928 5928 5927 5928 5929
5911 5911 5911 5910 5908 5907 5907 5907 5907 5906 5905 5904 5903 5902 5901 5902 5902 5903 5906 5908 5910 5912 5914 5916 5917 5919 5920 5921 5922 5923 5923 5923 5925 5927 5928 5928 5928 5930 5930 5930 5930 5931 5931
5913 5914 5913 5912 5910 5910 5909 5909 5908 5908 5907 5905 5902 5902 5903 5902 5902 5903 5906 5909 5911 5914 5916 5918 5919 5921 5921 5921 5923 5924 5925 5925 5927 5929 5930 5931 5931 5932 5932 5933 5933 5933 5933
5914 5914 5915 5914 5912 5912 5912 5911 5911 5910 5909 5907 5905 5905 5904 5902 5902 5904 5907 5910 5912 5915 5919 5920 5921 5921 5922 5923 5923 5925 5926 5927 5928 5930 5932 5933 5934 5935 5935 5935 5936 5936 5935
5916 5915 5916 5915 5914 5914 5914 5913 5912 5912 5911 5911 5909 5908 5907 5906 5905 5908 5911 5912 5915 5918 5920 5922 5923 5923 5923 5924 5924 5925 5926 5928 5930 5932 5934 5936 5937 5937 5938 5938 5938 5938 5938
5917 5916 5916 5916 5915 5915 5915 5915 5915 5914 5914 5914 5912 5912 5911 5911 5911 5913 5914 5916 5918 5921 5923 5924 5925 5925 5925 5925 5926 5926 5927 5928 5931 5934 5937 5938 5940 5940 5940 5941 5941 5941 5941
5919 5918 5917 5917 5917 5917 5917 5917 5917 5918 5917 5917 5916 5914 5915 5915 5917 5917 5918 5920 5922 5924 5925 5925 5926 5927 5927 5928 5929 5929 5929 5930 5933 5937 5939 5941 5942 5943 5944 5944 5944 5944 5944
5920 5920 5919 5919 5919 5918 5918 5919 5920 5920 5920 5920 5919 5919 5919 5920 5920 5921 5922 5923 5925 5926 5927 5927 5928 5930 5931 5932 5933 5934 5934 5935 5937 5940 5942 5944 5945 5946 5947 5947 5947 5947 5947
5922 5922 5922 5921 5920 5920 5921 5921 5922 5922 5923 5923 5923 5923 5924 5924 5924 5925 5925 5926 5928 5930 5931 5931 5932 5934 5935 5937 5938 5938 5938 5940 5942 5944 5946 5947 5948 5950 5950 5951 5951 5951 5950
5923 5924 5924 5924 5922 5922 5923 5923 5925 5925 5926 5926 5927 5927 5928 5928 5928 5928 5929 5930 5931 5933 5934 5936 5938 5938 5939 5940 5941 5942 5944 5946 5947 5949 5950 5950 5951 5953 5954 5954 5954 5954 5954
5924 5925 5924 5925 5924 5924 5925 5926 5928 5928 5929 5930 5930 5930 5931 5932 5933 5933 5934 5934 5935 5937 5938 5940 5940 5942 5943 5944 5946 5947 5949 5951 5952 5953 5953 5954 5955 5956 5957 5958 5958 5958 5958
5925 5925 5925 5926 5927 5927 5927 5928 5930 5931 5931 5932 5933 5933 5934 5935 5937 5938 5938 5938 5939 5940 5941 5943 5944 5944 5946 5947 5948 5950 5953 5955 5957 5957 5958 5958 5959 5961 5962 5962 5962 5961 5962
5926 5926 5927 5928 5928 5929 5930 5930 5932 5933 5933 5934 5936 5936 5937 5938 5939 5941 5942 5942 5943 5944 5945 5946 5947 5948 5949 5950 5950 5952 5956 5958 5961 5962 5962 5963 5964 5964 5966 5966 5965 5965 5965
5928 5928 5928 5929 5930 5932 5933 5933 5934 5934 5935 5936 5938 5939 5940 5941 5942 5943 5945 5946 5947 5948 5949 5950 5950 5951 5952 5952 5954 5955 5958 5961 5963 5965 5966 5967 5967 5968 5969 5969 5969 5969 5968
5929 5929 5930 5931 5932 5933 5935 5935 5936 5936 5937 5938 5940 5941 5943 5944 5945 5946 5947 5948 5950 5951 5952 5953 5954 5954 5955 5956 5957 5959 5961 5963 5965 5968 5969 5969 5970 5971 5972 5972 5972 5971 5971
5930 5930 5931 5932 5933 5934 5936 5937 5938 5938 5939 5940 5942 5944 5945 5946 5947 5948 5949 5951 5952 5953 5954 5954 5955 5956 5957 5959 5961 5963 5964 5965 5967 5969 5970 5971 5971 5972 5973 5974 5974 5973 5973
5931 5932 5932 5934 5934 5935 5937 5938 5939 5940 5942 5943 5944 5945 5946 5948 5949 5950 5951 5953 5954 5955 5956 5956 5957 5959 5960 5962 5964 5966 5967 5968 5968 5970 5971 5972 5973 5973 5973 5974 5975 5974 5974
5930 5932 5933 5934 5936 5937 5938 5939 5939 5940 5942 5944 5946 5947 5948 5949 5950 5951 5953 5954 5956 5957 5958 5959 5960 5961 5963 5965 5966 5968 5969 5970 5971 5971 5972 5973 5973 5973 5974 5975 5975 5975 5975
5929 5931 5932 5934 5935 5937 5938 5939 5940 5941 5942 5944 5946 5948 5949 5949 5950 5951 5953 5955 5956 5957 5959 5960 5961 5962 5964 5965 5967 5969 5970 5971 5972 5972 5972 5973 5973 5973 5974 5975 5974 5974 5974
5927 5929 5931 5933 5935 5936 5938 5939 5940 5941 5943 5944 5946 5947 5948 5949 5951 5951 5954 5955 5956 5957 5958 5960 5961 5963 5964 5965 5966 5968 5970 5971 5972 5973 5973 5973 5973 5974 5974 5974 5974 5974 5974
Wind_Speed
15 13 13 14 12 11 11 11 10 10 11 11 11 9 9 9 9 10 10 10 12 12 12 12 12 13 12 12 12 15 16 15 16 17 18 19 19 18 17 17 16 14 14
15 14 12 12 10 9 9 9 9 8 9 8 8 9 9 8 9 9 10 10 11 12 12 12 12 12 12 12 13 14 15 15 17 17 19 20 18 18 18 15 14 15 17
13 11 11 11 9 9 9 9 8 8 7 9 9 9 9 9 9 9 10 10 10 10 11 11 11 11 12 12 13 13 16 17 18 18 19 19 18 18 17 15 16 18 18
11 11 11 10 10 10 11 10 10 10 9 8 9 9 9 8 8 10 10 11 10 9 10 11 11 11 10 11 13 14 16 17 18 18 18 20 20 18 17 16 17 16 17
10 11 11 10 11 11 12 11 11 11 11 9 8 7 8 8 7 12 11 11 10 9 9 9 10 12 13 13 14 16 16 17 18 18 19 20 19 18 16 16 17 18 19
9 12 12 11 12 13 13 12 12 12 11 10 8 6 6 8 8 7 13 11 12 11 10 12 13 15 15 15 16 17 17 17 17 18 18 19 19 17 16 16 18 20 18
10 12 13 13 13 14 14 13 13 12 11 9 7 5 3 7 7 8 10 10 11 13 14 14 15 16 17 16 16 16 17 17 17 17 17 18 18 18 17 18 19 17 17
12 13 13 13 13 14 14 14 13 13 11 9 7 5 7 9 7 9 12 12 12 15 15 14 17 17 16 15 13 14 15 16 16 15 16 17 18 18 18 19 18 17 17
14 13 13 13 13 15 14 14 14 14 12 9 7 11 16 11 9 8 13 15 15 16 17 15 17 17 15 13 12 12 13 15 15 15 15 16 18 18 19 17 18 18 16
16 15 14 13 14 15 15 15 16 14 13 14 14 19 21 17 15 14 14 17 18 19 19 15 15 15 13 13 12 12 13 14 15 15 15 16 18 19 18 18 19 18 17
17 16 15 14 14 15 17 16 16 15 18 18 18 20 21 23 20 19 18 20 23 20 17 15 14 14 13 13 11 11 12 12 15 15 16 18 18 18 18 19 18 18 20
15 14 14 15 15 15 16 17 16 17 18 18 18 16 19 23 25 23 23 24 22 19 16 14 13 12 12 12 12 11 10 13 16 17 18 19 19 18 19 18 19 20 21
14 15 14 13 14 15 15 17 17 19 17 17 19 19 20 19 22 25 24 21 18 17 15 14 13 13 13 12 12 10 13 16 19 21 21 21 19 19 19 19 21 21 21
13 15 15 14 13 15 14 18 18 16 14 15 17 20 20 19 20 20 20 18 15 14 14 14 14 15 14 14 14 15 19 22 24 25 23 21 20 19 19 21 21 21 21
14 14 15 13 13 14 14 18 18 18 16 13 18 20 19 19 19 18 19 17 17 17 16 16 15 16 16 16 17 19 22 24 25 24 23 21 20 20 20 21 21 21 21
13 12 14 13 14 14 14 17 16 17 17 17 19 20 21 20 19 20 21 20 20 19 18 17 16 16 15 16 18 19 20 21 23 23 22 21 20 21 21 22 21 21 21
14 12 14 13 13 14 15 16 16 17 18 16 18 18 18 19 18 19 21 21 21 20 20 19 17 16 13 13 16 16 16 17 20 22 21 20 20 21 21 21 21 20 21
14 10 14 13 13 14 15 16 15 17 15 15 16 17 17 17 16 14 16 17 17 18 17 17 15 14 13 14 16 16 15 16 18 19 20 20 20 19 19 20 19 20 21
15 11 12 13 14 13 14 14 13 15 16 14 16 15 16 15 15 15 14 14 15 16 16 16 15 15 14 14 16 16 16 16 16 16 17 17 18 17 17 17 17 18 20
15 11 10 11 14 13 12 12 11 13 14 15 15 15 14 13 14 14 13 13 14 14 13 12 13 13 14 14 15 18 18 16 15 14 16 16 15 15 15 14 14 16 17
16 15 11 10 12 13 11 11 12 11 11 14 12 13 14 14 14 13 12 13 13 13 14 13 12 12 12 13 15 16 17 15 14 13 14 14 13 12 12 12 12 14 14
16 16 14 11 10 11 11 11 12 13 12 12 11 10 11 12 13 12 11 11 11 10 10 10 9 9 9 10 11 13 15 14 13 12 12 11 11 11 10 9 10 10 10
16 15 15 13 11 9 10 11 9 11 12 11 10 11 10 10 12 12 12 11 11 10 9 9 8 6 7 8 10 11 12 13 12 11 11 10 9 8 8 7 8 7 7
16 16 15 15 12 10 9 10 10 10 11 13 13 12 11 11 11 11 10 10 9 9 9 8 8 7 7 8 8 10 10 11 11 10 8 8 7 5 3 3 5 4 3
18 18 17 17 15 12 10 10 10 10 9 11 12 11 11 11 12 12 11 10 11 9 8 7 7 6 6 8 9 10 10 9 10 9 8 7 7 5 3 1 1 0 2
20 21 19 18 17 15 12 14 11 9 8 9 10 12 12 11 10 11 11 10 11 10 8 6 5 6 6 7 9 11 12 11 9 9 8 7 6 6 5 4 3 2 2
Wind_Direction
109 108 103 93 86 84 83 82 79 82 91 103 111 111 113 118 126 127 125 122 118 117 116 114 117 124 127 134 137 125 122 120 122 123 122 118 115 111 108 105 102 102 101
111 112 101 92 92 85 87 84 87 93 104 108 103 105 115 128 135 127 124 124 120 121 123 121 119 121 129 134 125 122 119 122 125 121 118 118 117 112 108 104 105 98 96
108 108 101 98 100 101 95 95 100 100 95 101 108 114 122 127 128 126 125 120 123 127 125 119 119 120 120 122 122 126 128 127 125 117 121 116 115 111 109 102 99 97 95
99 98 96 101 104 104 102 104 108 105 98 93 101 105 110 113 114 122 120 119 120 129 125 121 115 111 110 112 116 124 124 123 124 123 119 117 115 113 111 99 98 94 96
94 94 100 100 101 99 98 96 98 102 103 100 99 100 107 110 122 132 116 115 121 124 123 122 124 115 112 118 120 124 120 125 127 122 115 113 113 112 105 97 95 96 100
97 95 99 99 98 97 99 97 95 96 90 111 99 105 113 119 116 116 125 119 117 118 118 110 109 112 115 116 119 123 124 124 122 120 118 113 110 107 99 94 96 101 97
95 94 93 92 91 95 99 97 96 94 95 90 94 98 155 150 137 141 127 133 123 121 125 123 117 116 113 112 114 122 121 119 119 119 117 115 109 102 100 98 102 99 98
97 90 90 92 93 93 92 91 95 93 86 86 92 98 76 111 124 145 146 140 128 125 124 124 118 117 110 112 113 120 119 119 120 120 117 113 106 104 102 105 103 103 98
95 93 90 89 90 90 86 83 82 76 65 57 86 81 85 88 136 132 134 142 129 130 126 121 113 121 123 116 114 118 120 121 121 124 122 119 111 108 108 106 105 102 94
96 93 94 89 85 86 85 82 77 73 60 50 82 82 73 81 115 130 136 136 133 130 123 123 125 124 122 120 119 123 123 124 127 130 131 125 115 114 113 110 107 97 88
99 92 89 91 84 87 81 80 80 72 69 75 88 83 78 82 107 126 130 127 130 125 125 125 126 126 125 123 121 120 122 130 138 141 135 124 121 119 116 112 103 92 88
101 94 87 83 82 80 79 77 78 76 73 81 82 94 93 89 101 113 120 122 121 124 121 122 122 123 121 120 121 120 122 134 144 145 136 128 126 121 118 109 96 92 92
94 89 91 89 85 82 83 79 82 86 78 90 88 92 110 96 103 110 117 119 121 123 123 122 123 123 122 119 106 105 109 122 135 138 135 130 127 122 112 101 96 93 93
95 82 86 92 95 89 89 83 86 96 73 87 93 92 108 101 114 113 117 119 121 120 121 121 121 120 117 111 105 104 106 116 126 133 133 131 126 117 108 101 98 97 96
102 85 83 91 94 92 90 86 87 90 92 83 92 97 99 101 115 112 117 119 121 123 119 120 122 119 117 117 115 109 111 119 127 132 131 131 125 115 106 102 102 101 97
112 100 86 85 88 95 96 95 93 93 98 93 97 99 100 103 106 107 113 115 116 117 119 120 121 125 131 126 117 114 119 127 132 134 134 130 123 114 108 106 106 105 98
126 114 96 88 89 98 104 99 95 106 103 101 94 95 105 104 103 109 113 117 120 121 123 128 134 135 129 121 119 121 127 137 138 137 134 128 119 115 113 110 107 102 93
140 130 110 99 94 97 109 110 105 109 114 105 96 101 104 107 108 113 119 124 127 128 130 135 133 131 125 125 122 123 131 141 140 135 131 127 119 113 111 109 106 97 89
148 137 114 110 103 100 111 118 115 112 116 117 111 103 101 113 115 121 123 126 131 129 135 138 136 127 121 119 118 124 134 138 137 134 128 122 115 111 113 110 102 91 85
152 137 124 117 107 112 119 120 124 115 113 121 118 117 115 116 123 123 125 126 123 126 127 128 123 118 121 114 121 127 135 137 133 131 126 122 118 116 115 107 95 85 77
158 140 134 125 117 115 125 127 132 132 120 120 123 119 121 121 125 125 123 124 117 124 125 123 121 119 117 122 127 129 134 135 133 135 132 129 125 119 111 105 93 81 72
163 149 143 139 133 127 130 130 133 143 138 126 126 128 129 128 130 130 128 129 125 123 118 112 108 108 117 129 135 141 137 140 138 134 134 137 134 131 122 104 84 77 66
171 164 153 144 144 143 141 131 134 141 150 150 145 145 148 144 137 140 141 137 137 137 133 127 120 117 128 152 155 154 154 154 150 147 148 153 151 151 137 117 99 84 63
185 178 169 155 146 152 154 140 145 146 158 155 148 157 163 162 155 147 147 143 146 147 144 142 135 131 153 162 176 172 175 179 169 161 164 158 161 172 155 126 101 75 41
192 192 185 172 162 162 166 163 161 161 165 165 166 164 163 166 165 165 172 174 165 157 153 155 147 145 159 163 178 186 186 192 192 187 184 180 185 186 193 171 171 309 333
196 196 197 187 180 176 172 169 168 172 178 181 181 184 177 176 174 174 182 179 173 168 171 172 166 154 161 172 179 189 188 194 203 208 208 205 196 193 204 208 207 231 303